Location: Pine Mountain Observatory
(43.7910°N, 120.9377°W)
Time: 16:34:20
(UTC-07:00)

APEX - Visible Passes

Search period start: 29 April 2016 00:00
Search period end: 09 May 2016 00:00
Orbit: 337 x 1242 km, 69.9° (Epoch: 28 April)

Date Brightness Start Highest point End Pass type
(mag) Time Alt. Az. Time Alt. Az. Time Alt. Az.
29 Apr 5.3 03:06:00 10° NNW 03:06:42 16° NNW 03:06:42 16° NNW visible
30 Apr 5.6 02:35:25 10° N 02:36:01 15° N 02:36:01 15° N visible
01 May 6.0 02:04:57 10° N 02:05:26 13° NNE 02:05:26 13° NNE visible
02 May 6.2 01:34:45 10° NNE 01:34:54 11° NNE 01:34:54 11° NNE visible
05 May 5.9 01:43:50 10° NNW 01:44:11 13° NNW 01:44:11 13° NNW visible
06 May 5.9 01:13:08 10° N 01:13:45 14° N 01:13:45 14° N visible
07 May 5.8 00:42:34 10° N 00:43:19 14° NNE 00:43:19 14° NNE visible
08 May 5.8 00:12:15 10° NNE 00:12:55 12° NNE 00:12:55 12° NNE visible
